Location: Unspecified
(0.0000°N, 0.0000°E)
Time: 21:00:50
(UTC+00:00)

DELTA 1 DEB - Visible Passes

Search period start: 14 January 2025 00:00
Search period end: 24 January 2025 00:00
Orbit: 1341 x 1431 km, 101.1° (Epoch: 22 September)

Date Brightness Start Highest point End Pass type
(mag) Time Alt. Az. Time Alt. Az. Time Alt. Az.
14 Jan ? 02:52:03 10° ENE 02:57:51 22° ESE 03:03:36 10° SSE visible
14 Jan ? 04:41:30 10° N 04:49:00 45° WNW 04:56:25 10° SW visible
15 Jan ? 03:25:05 10° NE 03:32:34 45° ESE 03:39:55 10° S visible
15 Jan ? 05:17:49 10° NNW 05:23:39 23° WNW 05:29:29 10° WSW visible
16 Jan ? 03:59:17 10° NNE 04:07:17 85° ESE 04:15:10 10° SSW visible
17 Jan ? 02:45:37 10° ENE 02:50:52 19° ESE 02:56:03 10° SSE visible
17 Jan ? 04:34:21 10° N 04:42:00 51° WNW 04:49:33 10° SSW visible
18 Jan ? 03:18:18 10° NE 03:25:33 39° ESE 03:32:42 10° S visible
18 Jan ? 05:10:24 10° NNW 05:16:40 26° WNW 05:22:54 10° SW visible
19 Jan ? 03:52:19 10° NNE 04:00:16 76° ESE 04:08:06 10° S visible
19 Jan ? 05:48:59 10° NW 05:51:16 11° WNW 05:53:32 10° W visible
20 Jan ? 02:39:18 10° ENE 02:43:52 16° ESE 02:48:22 10° SE visible
20 Jan ? 04:27:13 10° N 04:34:59 58° WNW 04:42:40 10° SSW visible
21 Jan ? 03:11:34 10° NE 03:18:32 34° ESE 03:25:24 10° SSE visible
21 Jan ? 05:03:04 10° NNW 05:09:40 30° WNW 05:16:14 10° SW visible
22 Jan ? 03:45:23 10° NNE 03:53:14 67° ESE 04:01:00 10° S visible
22 Jan ? 05:40:43 10° NW 05:44:17 14° WNW 05:47:51 10° W visible
23 Jan ? 02:33:12 10° ENE 02:36:52 14° ESE 02:40:29 10° SE visible
23 Jan ? 04:20:07 10° N 04:27:57 66° WNW 04:35:43 10° SSW visible
